Regional Weather Roundup
Issued by NWS

Home | Current Version | Previous Version | Text Only | Print | Product List | Glossary On
Versions: 1 2 3 4 5 6 7 8 9 10 11 12 13 14 15 16 17 18 19 20 21 22 23 24 25 26 27 28 29 30 31 32 33 34 35 36 37 38 39 40 41 42 43 44 45 46 47 48 49 50
000
ASUS43 KBIS 190820
RWRND

NORTH DAKOTA REGIONAL WEATHER ROUNDUP
NATIONAL WEATHER SERVICE BISMARCK ND
200 AM CST FRI DEC 19 2014

NOTE: "FAIR" INDICATES FEW OR NO CLOUDS BELOW 12,000 FEET WITH NO
SIGNIFICANT WEATHER AND/OR OBSTRUCTIONS TO VISIBILITY.


NDZ001>003-009>011-017-190900-
NORTHWEST NORTH DAKOTA

CITY           SKY/WX    TMP DP  RH WIND       PRES   REMARKS
WILLISTON      FOG       26  25  96 CALM      29.92S VSB 1/4
MINOT          CLOUDY    25  23  92 E3        29.94S FOG
MINOT AFB      CLOUDY    24  24 100 SE6       29.94S FOG     WCI  17
$$

NDZ018>021-031>035-040>046-190900-
SOUTHWEST NORTH DAKOTA

CITY           SKY/WX    TMP DP  RH WIND       PRES   REMARKS
BISMARCK       PTCLDY    22  20  92 S6        29.98F WCI  14
DICKINSON      MOCLDY    30  24  78 SW9       29.89F
GARRISON         N/A     29  27  92 S7        29.93S
HETTINGER ARPT PTCLDY    21  17  84 W3        29.94F
$$

NDZ004>008-012>016-024-026-027-054-190900-
NORTHEAST NORTH DAKOTA

CITY           SKY/WX    TMP DP  RH WIND       PRES   REMARKS
GRAND FORKS    CLOUDY    21  17  84 S15       30.11F WCI   8
GRND FRKS AFB  CLOUDY    21  20  99 S10       30.10F WCI   9
DEVILS LAKE    CLOUDY    23  16  74 S12       30.00S WCI  12
$$

NDZ022-023-025-028>030-036>039-047>053-190900-
SOUTHEAST NORTH DAKOTA

CITY           SKY/WX    TMP DP  RH WIND       PRES   REMARKS
FARGO          CLOUDY    22  18  85 S12       30.14S FOG     WCI  10
JAMESTOWN      CLOUDY    25  23  92 S9        30.03F FOG     WCI  15
$$




USA.gov is the U.S. government's official web portal to all federal, state and local government web resources and services.